Change the Weather History Date:

Tuesday, November 29, 2011

  Actual Average (KSPI) Record (KSPI)
Temperature  
Mean Temperature 37 °F 36 °F  
Max Temperature 41 °F 45 °F 71 °F (1927)
Min Temperature 33 °F 28 °F 2 °F (1929)
Degree Days  
Heating Degree Days 28 29  
Month to date heating degree days 631  
Since 1 July heating degree days 1041  
Cooling Degree Days 0 0  
Month to date cooling degree days 0  
Year to date cooling degree days 1121  
Moisture  
Dew Point 33 °F    
Average Humidity 89    
Maximum Humidity 100    
Minimum Humidity 70    
Precipitation  
Precipitation 0.14 in 0.10 in 1.50 in (1930)
Month to date precipitation 3.10  
Year to date precipitation 34.80  
Snow  
Snow 0.00 in 0.00 in 2.90 in (1964)
Month to date snowfall 0.5  
Since 1 July snowfall 0.5  
Since 1 September snowfall 0.5  
Snow Depth -    
Sea Level Pressure  
Sea Level Pressure 29.87 in    
Wind  
Wind Speed 22 mph (NNW)    
Max Wind Speed 25 mph    
Max Gust Speed 33 mph    
Visibility 8 miles    
Events Rain , Snow    
T = Trace of Precipitation, MM = Missing Value Source: NWS Daily Summary

Daily Weather History Graph

Daily Weather History Graph

Search for Another Location

Airport or City:

Trip Planner

Search our weather history database for the weather conditions in past years. The results will help you decide how hot, cold, wet, or windy it might be!

Date:

Astronomy

Nov. 29, 2011 Rise Set
Actual Time 6:56 AM CST 4:34 PM CST
Civil Twilight 6:26 AM CST 5:04 PM CST
Nautical Twilight 5:53 AM CST 5:37 PM CST
Astronomical Twilight 5:21 AM CST 6:09 PM CST
Moon 10:43 AM CST (11/29) 9:27 PM CST (11/29)
Length of Visible Light 10h 37m
Length of Day
9h 38m
Waxing Crescent, 24% of the Moon is Illuminated
Nov 29
Waxing Crescent
Dec 2
First Quarter
Dec 10
Full
Dec 17
Last Quarter
Dec 24
New

Hourly Weather History & Observations

Time (CST) Temp. Windchill Dew Point Humidity Pressure Visibility Wind Dir Wind Speed Gust Speed Precip Events Conditions
12:15 AM 33.8 °F 21.3 °F 33.8 °F 100% 29.82 in 3.0 mi North 24.2 mph 29.9 mph 0.02 in Rain Light Rain
12:35 AM 33.8 °F 21.9 °F 33.8 °F 100% 29.82 in 4.0 mi North 21.9 mph 29.9 mph 0.03 in Rain Rain
12:55 AM 33.8 °F 21.9 °F 33.8 °F 100% 29.80 in 3.0 mi North 21.9 mph 27.6 mph N/A Rain Light Rain
1:15 AM 33.8 °F 22.5 °F 33.8 °F 100% 29.80 in 5.0 mi North 19.6 mph 28.8 mph N/A   Light Drizzle
1:35 AM 35.6 °F 24.0 °F 33.8 °F 93% 29.80 in 4.0 mi North 23.0 mph 28.8 mph N/A Rain Light Rain
1:55 AM 33.8 °F 21.9 °F 33.8 °F 100% 29.80 in 4.0 mi North 21.9 mph 26.5 mph N/A Rain Light Rain
2:15 AM 33.8 °F 21.9 °F 33.8 °F 100% 29.79 in 4.0 mi North 21.9 mph 28.8 mph 0.01 in   Drizzle
2:35 AM 33.8 °F 21.9 °F 33.8 °F 100% 29.79 in 3.0 mi North 21.9 mph 29.9 mph 0.02 in Rain Light Rain
2:55 AM 33.8 °F 21.0 °F 33.8 °F 100% 29.79 in 2.5 mi North 25.3 mph 32.2 mph 0.02 in Rain Light Rain
3:15 AM 33.8 °F 21.3 °F 33.8 °F 100% 29.78 in 2.5 mi North 24.2 mph 28.8 mph 0.05 in Rain Rain
3:35 AM 33.8 °F 21.0 °F 33.8 °F 100% 29.77 in 3.0 mi North 25.3 mph 29.9 mph 0.07 in Rain Light Rain
3:55 AM 33.8 °F 21.6 °F 33.8 °F 100% 29.78 in 4.0 mi North 23.0 mph 31.1 mph 0.01 in Rain Light Rain
4:15 AM 33.8 °F 22.2 °F 33.8 °F 100% 29.78 in 3.0 mi North 20.7 mph 33.4 mph 0.03 in Snow Snow
4:35 AM 33.8 °F 22.5 °F 33.8 °F 100% 29.78 in 5.0 mi North 19.6 mph 27.6 mph 0.05 in Snow Light Snow
4:55 AM 33.8 °F 22.2 °F 33.8 °F 100% 29.78 in 7.0 mi North 20.7 mph 26.5 mph N/A   Light Drizzle
5:15 AM 33.8 °F 21.3 °F 33.8 °F 100% 29.79 in 10.0 mi North 24.2 mph 31.1 mph N/A   Overcast
5:35 AM 33.8 °F 21.9 °F 33.8 °F 100% 29.80 in 10.0 mi North 21.9 mph 31.1 mph N/A   Overcast
5:55 AM 33.8 °F 22.2 °F 32.0 °F 93% 29.81 in 10.0 mi North 20.7 mph 26.5 mph N/A   Overcast
6:15 AM 33.8 °F 22.2 °F 32.0 °F 93% 29.82 in 10.0 mi North 20.7 mph 28.8 mph N/A   Overcast
6:35 AM 33.8 °F 21.6 °F 32.0 °F 93% 29.83 in 10.0 mi North 23.0 mph 26.5 mph N/A   Overcast
6:55 AM 33.8 °F 23.5 °F 32.0 °F 93% 29.84 in 10.0 mi North 16.1 mph 31.1 mph N/A   Overcast
7:15 AM 33.8 °F 22.5 °F 30.2 °F 87% 29.85 in 10.0 mi North 19.6 mph 25.3 mph N/A   Overcast
7:35 AM 33.8 °F 22.8 °F 32.0 °F 93% 29.85 in 10.0 mi NNW 18.4 mph 23.0 mph N/A   Overcast
7:55 AM 33.8 °F 22.5 °F 32.0 °F 93% 29.86 in 10.0 mi NNW 19.6 mph 24.2 mph N/A   Overcast
8:15 AM 33.8 °F 22.5 °F 32.0 °F 93% 29.87 in 10.0 mi NNW 19.6 mph 27.6 mph N/A   Overcast
8:35 AM 35.6 °F 24.8 °F 32.0 °F 87% 29.87 in 10.0 mi North 19.6 mph - N/A   Overcast
8:55 AM 35.6 °F 24.5 °F 33.8 °F 93% 29.87 in 10.0 mi NNW 20.7 mph 28.8 mph N/A   Overcast
9:15 AM 35.6 °F 23.7 °F 33.8 °F 93% 29.87 in 10.0 mi NNW 24.2 mph 28.8 mph N/A   Overcast
9:35 AM 37.4 °F 26.9 °F 33.8 °F 87% 29.88 in 10.0 mi NNW 20.7 mph 27.6 mph N/A   Overcast
9:55 AM 37.4 °F 26.4 °F 35.6 °F 93% 29.88 in 10.0 mi NNW 23.0 mph 33.4 mph N/A   Mostly Cloudy
10:15 AM 39.2 °F 28.3 °F 35.6 °F 87% 29.89 in 10.0 mi NNW 25.3 mph 29.9 mph N/A   Mostly Cloudy
10:35 AM 39.2 °F 29.3 °F 35.6 °F 87% 29.89 in 10.0 mi North 20.7 mph 29.9 mph N/A   Overcast
10:55 AM 39.2 °F 29.3 °F 35.6 °F 87% 29.89 in 10.0 mi North 20.7 mph 29.9 mph N/A   Overcast
11:15 AM 39.2 °F 29.0 °F 35.6 °F 87% 29.89 in 10.0 mi North 21.9 mph 32.2 mph N/A   Overcast
11:35 AM 39.2 °F 28.5 °F 35.6 °F 87% 29.89 in 10.0 mi NNW 24.2 mph - N/A   Overcast
11:55 AM 41.0 °F 30.9 °F 35.6 °F 81% 29.89 in 10.0 mi NNW 24.2 mph 27.6 mph N/A   Overcast
12:15 PM 41.0 °F 31.6 °F 35.6 °F 81% 29.89 in 10.0 mi NNW 20.7 mph 28.8 mph N/A   Overcast
12:35 PM 41.0 °F 31.6 °F 35.6 °F 81% 29.90 in 10.0 mi NNW 20.7 mph 27.6 mph N/A   Overcast
12:55 PM 41.0 °F 31.9 °F 35.6 °F 81% 29.90 in 10.0 mi NNW 19.6 mph 28.8 mph N/A   Overcast
1:15 PM 41.0 °F 32.5 °F 35.6 °F 81% 29.91 in 10.0 mi NNW 17.3 mph 25.3 mph N/A   Overcast
1:35 PM 39.2 °F 29.8 °F 35.6 °F 87% 29.92 in 10.0 mi NNW 18.4 mph 27.6 mph N/A   Overcast
1:55 PM 39.2 °F 29.6 °F 35.6 °F 87% 29.92 in 10.0 mi NNW 19.6 mph - N/A   Overcast
2:15 PM 41.0 °F 31.1 °F 35.6 °F 81% 29.92 in 10.0 mi NNW 23.0 mph 27.6 mph N/A   Overcast
2:35 PM 41.0 °F 31.4 °F 35.6 °F 81% 29.93 in 10.0 mi NNW 21.9 mph 32.2 mph N/A   Overcast
2:55 PM 39.2 °F 28.5 °F 33.8 °F 81% 29.95 in 10.0 mi NNW 24.2 mph 31.1 mph N/A   Overcast
3:15 PM 39.2 °F 28.5 °F 33.8 °F 81% 29.96 in 10.0 mi NW 24.2 mph 32.2 mph N/A   Overcast
3:35 PM 39.2 °F 29.0 °F 32.0 °F 75% 29.97 in 10.0 mi NNW 21.9 mph 33.4 mph N/A   Overcast
3:55 PM 39.2 °F 29.3 °F 32.0 °F 75% 29.98 in 10.0 mi NNW 20.7 mph 33.4 mph N/A   Overcast
4:15 PM 39.2 °F 28.5 °F 30.2 °F 70% 29.98 in 10.0 mi NW 24.2 mph 33.4 mph N/A   Overcast
4:35 PM 37.4 °F 27.5 °F 30.2 °F 75% 29.99 in 10.0 mi NW 18.4 mph 28.8 mph N/A   Overcast
4:55 PM 37.4 °F 25.9 °F 30.2 °F 75% 29.99 in 10.0 mi NW 25.3 mph 28.8 mph N/A   Overcast
5:15 PM 37.4 °F 26.9 °F 30.2 °F 75% 30.01 in 10.0 mi NW 20.7 mph 29.9 mph N/A   Overcast
5:35 PM 37.4 °F 27.5 °F 30.2 °F 75% 30.02 in 10.0 mi NNW 18.4 mph 25.3 mph N/A   Overcast
5:55 PM 37.4 °F 27.2 °F 28.4 °F 70% 30.02 in 10.0 mi NNW 19.6 mph 31.1 mph N/A   Overcast
6:15 PM 35.6 °F 25.2 °F 28.4 °F 75% 30.03 in 10.0 mi NNW 18.4 mph 25.3 mph N/A   Mostly Cloudy
6:35 PM 35.6 °F 26.6 °F 28.4 °F 75% 30.04 in 10.0 mi NNW 13.8 mph - N/A   Clear
6:55 PM 33.8 °F 24.8 °F 28.4 °F 81% 30.05 in 10.0 mi NNW 12.7 mph - N/A   Clear
7:15 PM 33.8 °F 24.8 °F 28.4 °F 81% 30.05 in 10.0 mi NNW 12.7 mph - N/A   Clear
7:35 PM 33.8 °F 24.3 °F 28.4 °F 81% 30.05 in 10.0 mi NNW 13.8 mph - N/A   Clear
7:55 PM 33.8 °F 24.8 °F 28.4 °F 81% 30.05 in 10.0 mi NNW 12.7 mph - N/A   Scattered Clouds
8:15 PM 33.8 °F 24.3 °F 28.4 °F 81% 30.05 in 10.0 mi NNW 13.8 mph - N/A   Scattered Clouds
8:35 PM 33.8 °F 25.3 °F 26.6 °F 75% 30.06 in 10.0 mi NNW 11.5 mph - N/A   Clear
8:55 PM 33.8 °F 24.8 °F 26.6 °F 75% 30.06 in 10.0 mi NNW 12.7 mph - N/A   Clear
9:15 PM 33.8 °F 24.8 °F 26.6 °F 75% 30.05 in 10.0 mi NNW 12.7 mph - N/A   Clear
9:35 PM 33.8 °F 25.8 °F 26.6 °F 75% 30.05 in 10.0 mi NW 10.4 mph - N/A   Clear
9:55 PM 32.0 °F 24.2 °F 26.6 °F 80% 30.05 in 10.0 mi NW 9.2 mph - N/A   Clear
10:15 PM 32.0 °F 24.8 °F 26.6 °F 80% 30.05 in 10.0 mi NW 8.1 mph - N/A   Clear
10:35 PM 32.0 °F 25.6 °F 24.8 °F 75% 30.05 in 10.0 mi WNW 6.9 mph - N/A   Clear
10:55 PM 30.2 °F 22.6 °F 24.8 °F 80% 30.05 in 10.0 mi NW 8.1 mph - N/A   Clear
11:15 PM 30.2 °F 22.6 °F 24.8 °F 80% 30.05 in 10.0 mi WNW 8.1 mph - N/A   Clear
11:35 PM 30.2 °F 22.6 °F 24.8 °F 80% 30.05 in 10.0 mi WNW 8.1 mph - N/A   Clear
11:55 PM 30.2 °F 21.9 °F 24.8 °F 80% 30.05 in 10.0 mi WNW 9.2 mph - N/A   Clear